This demonstration page uses our WeatherBlox Daily Observations layout. Learn more.

Left ArrowRight Arrow

Hourly Observations for June 20, 2017

Temp ( °F °C ) Dew Point ( °F °C ) Humidity (%) Winds ( mph kmh ) Pressure ( in mb ) Visibility ( mi km ) Precip ( " mm )
12:53 am 00:53 Clear 62 16.7 41 5 46 46 E 14 22 29.96 1015 10 16 0.00 0.00
1:53 am 01:53 Partly Cloudy 62 16.7 39 3.9 43 43 E 14 22 29.93 1014 10 16 0.00 0.00
2:53 am 02:53 Cloudy 61 16.1 40 4.4 46 46 E 13 20 29.91 1013 10 16 0.00 0.00
3:53 am 03:53 Mostly Cloudy 62 16.7 39 3.9 43 43 E 14 22 29.88 1012 10 16 0.00 0.00
4:53 am 04:53 Mostly Clear 60 15.6 38 3.3 44 44 ENE 13 20 29.88 1012 10 16 0.00 0.00
5:53 am 05:53 Mostly Cloudy 58 14.4 41 5 53 53 E 14 22 29.88 1012 10 16 0.00 0.00
6:53 am 06:53 Partly Cloudy 60 15.6 41 5 50 50 E 13 20 29.86 1011 10 16 0.00 0.00
7:53 am 07:53 Mostly Cloudy 65 18.3 43 6.1 45 45 ENE 10 17 29.86 1011 10 16 0.00 0.00
8:53 am 08:53 Mostly Cloudy 69 20.6 44 6.7 41 41 NE 8 13 29.87 1011 10 16 0.00 0.00
9:53 am 09:53 Sunny 72 22.2 43 6.1 35 35 WSW 9 15 29.87 1011 10 16 0.00 0.00
10:53 am 10:53 Sunny 75 23.9 43 6.1 32 32 W 8 13 29.85 1011 10 16 0.00 0.00
11:53 am 11:53 Sunny 79 26.1 46 7.8 31 31 SW 10 17 29.84 1010 10 16 0.00 0.00
12:53 pm 12:53 Sunny 83 28.3 48 8.9 30 30 WSW 20 31 29.80 1009 10 16 0.00 0.00
1:53 pm 13:53 Sunny 85 29.4 47 8.3 27 27 W 14 22 29.78 1008 10 16 0.00 0.00
2:53 pm 14:53 Sunny 88 31.1 44 6.7 22 22 W 22 35 29.76 1008 10 16 0.00 0.00
3:53 pm 15:53 Sunny 87 30.6 46 7.8 24 24 WSW 21 33 29.73 1007 10 16 0.00 0.00
4:53 pm 16:53 Mostly Sunny 89 31.7 47 8.3 23 23 WSW 18 30 29.72 1006 10 16 0.00 0.00
5:53 pm 17:53 Mostly Cloudy 86 30 49 9.4 28 28 WSW 16 26 29.70 1006 10 16 0.00 0.00
6:53 pm 18:53 Sunny 86 30 49 9.4 28 28 SW 13 20 29.67 1005 10 16 0.00 0.00
7:53 pm 19:53 Partly Cloudy 81 27.2 51 10.6 35 35 W 7 11 29.67 1005 10 16 0.00 0.00
8:53 pm 20:53 Mostly Sunny 77 25 53 11.7 43 43 SW 7 11 29.67 1005 10 16 0.00 0.00
9:53 pm 21:53 Partly Cloudy 79 26.1 50 10 36 36 W 13 20 29.66 1004 10 16 0.00 0.00
10:53 pm 22:53 Partly Cloudy 75 23.9 50 10 41 41 W 10 17 29.67 1005 10 16 0.00 0.00
11:53 pm 23:53 Partly Cloudy 75 23.9 47 8.3 37 37 WNW 22 35 29.67 1005 10 16 0.00 0.00

Powered by AerisWeather